NIMIQ 6

Last updated on Sat Apr 13 2024 01:02:38 GMT+0100 (British Summer Time)

1 38342U 12026A 24103.57424240 -.00000182 00000+0 00000+0 0 9999 2 38342 0.0082 211.4033 0002855 162.2921 303.1796 1.00273065 42446
UTC large
Height (km)
Speed (km/s)
/
Latitude / Longitude
Inclination (degrees)
Orbital Period (minutes)
Azimuth
Elevation
Range (km)
Doppler Factor

Next 0 passes for location: London (51.5072 / 0.1276)

Sorry there are no passes over London.